{"data":{"norad_id":67604,"intl_designator":"2026-018R","name":"STARLINK-36605","alt_names":[],"object_type":"PAYLOAD","status":"ACTIVE","operator":null,"country":"US","launch_date":"2026-01-29","launch_site_code":"AFWTR","launch_vehicle":null,"mission":null,"orbit_class":"UNKNOWN","rcs_meters":null,"size_class":null,"mass_kg":null,"dimensions":null,"purposes":["comms"],"wikipedia_slug":null,"has_3d_model":false,"image_url":null,"decayed_at":null,"tle_current":{"epoch":"2026-09-19T11:40:00.594336Z","epoch_age_seconds":156471,"freshness":"FRESH","line1":"1 67604U 26018R   26262.48611799  .00014145  00000+0  43959-3 0  9990","line2":"2 67604  97.2871 325.9372 0001217 104.0838 256.0540 15.33448330 37034","mean_motion":15.3344833,"eccentricity":0.0001217,"inclination_deg":97.2871,"raan_deg":325.9372,"arg_perigee_deg":104.0838,"mean_anomaly_deg":256.054,"bstar":0.00043959,"rev_number":3703,"period_min":93.906000732349,"perigee_km":464.70039208745,"apogee_km":466.36614143038,"semimajor_km":6843.6702667589,"source":"CELESTRAK","updated_at":"2026-09-20T09:00:43.605704Z"}}}